Location: Absher
(46.5583°N, 107.9840°W)
Time: 19:30:44
(UTC+00:00)

QB50P2 - Pass Details

Date: 04 April 2023
Orbit: 581 x 596 km, 98.0° (Epoch: 31 May)

Event Time Altitude Azimuth Distance (km) Brightness Sun altitude
Rises 22:16:34 0° 262° (W) 2,840 ? 33.4°
Enters shadow 22:39:23 -35° 11° (N) 8,326 ? 30.0°
Exits shadow 23:14:04 -70° 153° (SSE) 12,592 ? 24.5°
Reaches altitude 10° 08:17:56 10° 37° (NE) 1,920 ? -36.0°
